Regional Weather Roundup
Issued by NWS

Home | Current Version | Previous Version | Text Only | Print | Product List | Glossary On
Versions: 1 2 3 4 5 6 7 8 9 10 11 12 13 14 15 16 17 18 19 20 21 22 23 24 25 26 27 28 29 30 31 32 33 34 35 36 37 38 39 40 41 42 43 44 45 46 47 48 49 50
145
ASUS45 KSLC 200710
RWRUT

UTAH REGIONAL WEATHER ROUNDUP
NATIONAL WEATHER SERVICE SALT LAKE CITY UT
100 AM MDT FRI APR 20 2018

UTZ001>011-023>025-200800-

NORTHERN UTAH

CITY           SKY/WX    TMP DP  RH WIND       PRES   REMARKS
BRIGHAM CITY   MOCLDY    56  17  20 NE26G32   29.76R
HILL AFB       MOCLDY    51  17  25 E7        29.73F
LOGAN          PTCLDY    50  26  39 SW12      29.80R
OGDEN          MOCLDY    55  18  23 NE17      29.71F
SALT LAKE CITY MOCLDY    53  31  42 N12G17    29.72S
TOOELE VALLEY  MOCLDY    45  36  70 W6        29.72F
WENDOVER       CLOUDY    54  26  34 NW20G32   29.79S
HEBER CITY     CLOUDY    48  28  46 N6        29.74F
WEST JORDAN    MOCLDY    51  26  38 NW8       29.71F

$$

UTZ011>015-024>027-200800-

CENTRAL/NORTHEAST UTAH

CITY           SKY/WX    TMP DP  RH WIND       PRES   REMARKS
PROVO AIRPORT  CLOUDY    49  31  49 E5        29.71F
MOAB/CANYONLAN CLOUDY    56  10  16 SW9       29.68R
DELTA          CLOUDY    41  36  81 S10       29.77F
PRICE          CLOUDY    53   8  16 S3        29.68S
RICHFIELD      PTCLDY    43  34  70 CALM      29.78F
ROOSEVELT      CLOUDY    52  32  46 NE13G18   29.78R
VERNAL         HVY RAIN  48  38  68 NW22G31   29.79R

$$

UTZ013>016-019>022-027-200800-

SOUTHERN UTAH

CITY           SKY/WX    TMP DP  RH WIND       PRES   REMARKS
BRYCE CANYON   CLOUDY    30  24  78 NW13G18   29.81F WCI  20
CEDAR CITY     MOCLDY    32  24  72 SW8       29.83R WCI  25
MILFORD        LGT RAIN  41  40  96 W9        29.82R
ST GEORGE      PTSUNNY   52  32  46 S12       29.84S
HANKSVILLE     PTCLDY    52  18  25 SW10      29.72S
KANAB          PTCLDY    41  30  65 W10G17    29.90R
BLANDING         N/A     49   9  19 S13G22    29.87R

$$

REGIONAL REPORTS     COLORADO/ARIZONA

CITY           SKY/WX    TMP DP  RH WIND       PRES   REMARKS
CRAIG, CO      CLOUDY    50  34  54 S10       29.84S
GRAND JUNCTION CLOUDY    62  25  24 SE23G36   29.69R
RIFLE, CO      CLOUDY    56  30  37 S5        29.77R
MONTROSE, CO   LGT RAIN  51  32  48 W7G32     29.85R
CORTEZ, CO     CLOUDY    50   7  17 SW17      29.83F
COLORADO CITY    N/A     41  36  81 N6        29.89S
PAGE, AZ       PTCLDY    50  23  34 W10G17    29.80R
GRAND CANYON   NOT AVBL
KINGMAN, AZ    MOCLDY    49  23  36 SW10      29.89S
FLAGSTAFF, AZ  PTCLDY    32  17  54 W6        29.90R WCI  26

$$

REGIONAL REPORTS    NEVADA/IDAHO/WYOMING

CITY           SKY/WX    TMP DP  RH WIND       PRES   REMARKS
LAS VEGAS, NV  CLOUDY    56  37  49 NW17      29.88S
ELY, NY        CLOUDY    41  23  48 N16       29.88S
ELKO, NV       CLEAR     43  29  57 SE3       29.97S
POCATELLO, ID  PTCLDY    47  27  45 NE5       29.91R
BURLEY, ID     CLEAR     41  32  70 W7        29.92R
FORT BRIDGER,  CLOUDY    44  28  54 S6        29.90S
EVANSTON, WY   CLOUDY    44  27  51 NE10      29.87F
ROCK SPRINGS,  CLOUDY    45  21  38 NE20G28   29.86S
KEMMERER, WY   CLOUDY    43  18  36 NE9       29.90S

$$




USA.gov is the U.S. government's official web portal to all federal, state and local government web resources and services.